Location: Unspecified
(0.0000°N, 0.0000°E)
Time: 05:49:14
(UTC+00:00)

Tiangong - Pass Details

Date: 09 August 2022
Orbit: 381 x 385 km, 41.5° (Epoch: 13 August)

Event Time Altitude Azimuth Distance (km) Brightness Sun altitude
Rises 19:02:07 0° 212° (SSW) 2,248 2.0 -13.6°
Reaches altitude 10° 19:04:19 10° 202° (SSW) 1,393 0.8 -14.1°
Maximum altitude 19:07:10 32° 136° (SE) 678 -1.4 -14.8°
Enters shadow 19:07:19 32° 130° (SE) 681 -1.4 -14.9°
